• In Uzbekistan
  • List of Countries
  • For 7 days
  • Water Temperature
  • Satellite Maps
  • Weather Map
  • Weather Widgets
  • user-avatar
    Login

    Hourly Weather Adelaide

    Today, 26 May, Friday

    Time Temperature Precipitation Wind Pressure Humidity
    00:00 +13°C° 0 mm 1 mps 762 mmHg 94%
    01:00 +13°C° 0 mm 1 mps 762 mmHg 94%
    02:00 +13°C° 0 mm 1 mps 762 mmHg 95%
    03:00 +13°C° 0 mm 1 mps 762 mmHg 95%
    04:00 +13°C° 0 mm 1 mps 762 mmHg 95%
    05:00 +13°C° 0 mm 1 mps 762 mmHg 95%
    06:00 +13°C° 0 mm 1 mps 762 mmHg 95%
    07:00 +14°C° 0 mm 2 mps 762 mmHg 89%
    08:00 +15°C° 0 mm 2 mps 762 mmHg 84%
    09:00 +17°C° 0 mm 2 mps 762 mmHg 76%
    10:00 +18°C° 0 mm 2 mps 762 mmHg 69%
    11:00 +19°C° 0 mm 2 mps 761 mmHg 62%
    12:00 +20°C° 0 mm 2 mps 761 mmHg 55%
    13:00 +20°C° 0 mm 2 mps 760 mmHg 54%
    14:00 +20°C° 0 mm 2 mps 760 mmHg 52%
    15:00 +21°C° 0 mm 3 mps 759 mmHg 47%
    16:00 +19°C° 0 mm 2 mps 759 mmHg 52%
    17:00 +17°C° 0 mm 2 mps 759 mmHg 57%
    18:00 +16°C° 0 mm 2 mps 759 mmHg 62%
    19:00 +16°C° 0 mm 2 mps 759 mmHg 61%
    20:00 +16°C° 0 mm 2 mps 758 mmHg 60%
    21:00 +14°C° 0 mm 3 mps 758 mmHg 59%
    22:00 +14°C° 0 mm 3 mps 758 mmHg 59%
    23:00 +14°C° 0 mm 3 mps 758 mmHg 59%

    Tomorrow, 27 May, Saturday

    Time Temperature Precipitation Wind Pressure Humidity
    00:00 +14°C° 0 mm 4 mps 758 mmHg 58%
    01:00 +14°C° 0 mm 4 mps 757 mmHg 59%
    02:00 +14°C° 0 mm 4 mps 757 mmHg 60%
    03:00 +14°C° 0 mm 4 mps 757 mmHg 60%
    04:00 +14°C° 0 mm 4 mps 757 mmHg 60%
    05:00 +14°C° 0 mm 4 mps 756 mmHg 60%
    06:00 +14°C° 0 mm 4 mps 756 mmHg 60%
    07:00 +15°C° 0 mm 4 mps 756 mmHg 57%
    08:00 +16°C° 0 mm 5 mps 756 mmHg 54%
    09:00 +17°C° 0 mm 5 mps 756 mmHg 52%
    10:00 +19°C° 0 mm 5 mps 755 mmHg 50%
    11:00 +20°C° 0 mm 5 mps 755 mmHg 48%
    12:00 +21°C° 0 mm 5 mps 755 mmHg 45%
    13:00 +20°C° 0.2 mm 5 mps 754 mmHg 49%
    14:00 +20°C° 0.2 mm 6 mps 754 mmHg 52%
    15:00 +19°C° 0.2 mm 6 mps 754 mmHg 55%
    16:00 +17°C° 0.5 mm 5 mps 754 mmHg 64%
    17:00 +15°C° 0.5 mm 5 mps 755 mmHg 73%
    18:00 +14°C° 0.5 mm 5 mps 755 mmHg 83%
    19:00 +13°C° 0.2 mm 5 mps 755 mmHg 82%
    20:00 +13°C° 0.2 mm 5 mps 756 mmHg 82%
    21:00 +13°C° 0.2 mm 5 mps 756 mmHg 82%
    22:00 +12°C° 0.2 mm 5 mps 756 mmHg 81%
    23:00 +12°C° 0.2 mm 5 mps 757 mmHg 81%

    Day after tomorrow, 28 May, Sunday

    Time Temperature Precipitation Wind Pressure Humidity
    00:00 +10°C° 0.2 mm 5 mps 757 mmHg 81%
    01:00 +10°C° 0 mm 5 mps 757 mmHg 80%
    02:00 +10°C° 0 mm 5 mps 757 mmHg 78%
    03:00 +10°C° 0 mm 5 mps 757 mmHg 76%
    04:00 +10°C° 0.1 mm 5 mps 757 mmHg 76%
    05:00 +10°C° 0.1 mm 5 mps 757 mmHg 76%
    06:00 +10°C° 0.1 mm 5 mps 757 mmHg 76%
    07:00 +12°C° 0.1 mm 5 mps 758 mmHg 73%
    08:00 +12°C° 0.1 mm 5 mps 758 mmHg 70%
    09:00 +13°C° 0.1 mm 6 mps 759 mmHg 67%
    10:00 +13°C° 0.1 mm 6 mps 759 mmHg 64%
    11:00 +14°C° 0.1 mm 6 mps 759 mmHg 62%
    12:00 +14°C° 0.1 mm 5 mps 759 mmHg 59%
    13:00 +14°C° 0 mm 5 mps 759 mmHg 56%
    14:00 +15°C° 0 mm 5 mps 759 mmHg 54%
    15:00 +15°C° 0 mm 5 mps 759 mmHg 51%
    16:00 +14°C° 0.1 mm 5 mps 759 mmHg 57%
    17:00 +13°C° 0.1 mm 5 mps 760 mmHg 63%
    18:00 +12°C° 0.1 mm 5 mps 760 mmHg 69%
    19:00 +12°C° 0.1 mm 4 mps 760 mmHg 71%
    20:00 +12°C° 0.1 mm 4 mps 761 mmHg 73%
    21:00 +13°C° 0.1 mm 4 mps 761 mmHg 75%
    22:00 +12°C° 0 mm 4 mps 761 mmHg 77%
    23:00 +12°C° 0 mm 4 mps 761 mmHg 78%

    29 May, Monday

    Time Temperature Precipitation Wind Pressure Humidity
    00:00 +12°C° 0 mm 4 mps 761 mmHg 79%
    01:00 +12°C° 0 mm 3 mps 761 mmHg 79%
    02:00 +12°C° 0 mm 3 mps 761 mmHg 79%
    03:00 +12°C° 0 mm 3 mps 761 mmHg 80%
    04:00 +12°C° 0.1 mm 3 mps 761 mmHg 82%
    05:00 +12°C° 0.1 mm 3 mps 762 mmHg 83%
    06:00 +11°C° 0.1 mm 3 mps 762 mmHg 85%
    07:00 +12°C° 0.2 mm 3 mps 762 mmHg 81%
    08:00 +13°C° 0.2 mm 3 mps 762 mmHg 77%
    09:00 +14°C° 0.2 mm 3 mps 763 mmHg 73%
    10:00 +14°C° 0.1 mm 3 mps 762 mmHg 71%
    11:00 +16°C° 0.1 mm 3 mps 762 mmHg 69%
    12:00 +16°C° 0.1 mm 3 mps 762 mmHg 66%
    13:00 +16°C° 0.1 mm 3 mps 761 mmHg 68%
    14:00 +16°C° 0.1 mm 3 mps 761 mmHg 69%
    15:00 +16°C° 0.1 mm 3 mps 761 mmHg 71%
    16:00 +14°C° 0.1 mm 3 mps 761 mmHg 74%
    17:00 +13°C° 0.1 mm 3 mps 761 mmHg 76%
    18:00 +13°C° 0.1 mm 3 mps 761 mmHg 79%
    19:00 +13°C° 0.1 mm 3 mps 761 mmHg 78%
    20:00 +13°C° 0.1 mm 4 mps 761 mmHg 78%
    21:00 +13°C° 0.1 mm 4 mps 761 mmHg 77%
    22:00 +13°C° 0.1 mm 4 mps 760 mmHg 79%
    23:00 +13°C° 0.1 mm 5 mps 760 mmHg 80%

    30 May, Tuesday

    Time Temperature Precipitation Wind Pressure Humidity
    00:00 +13°C° 0.1 mm 5 mps 759 mmHg 81%
    01:00 +13°C° 0.1 mm 6 mps 758 mmHg 81%
    02:00 +13°C° 0.1 mm 6 mps 757 mmHg 81%
    03:00 +13°C° 0.1 mm 6 mps 757 mmHg 81%
    04:00 +11°C° 1.8 mm 7 mps 756 mmHg 82%
    05:00 +11°C° 1.8 mm 7 mps 756 mmHg 84%
    06:00 +11°C° 1.8 mm 7 mps 756 mmHg 86%
    07:00 +10°C° 0.9 mm 8 mps 756 mmHg 84%
    08:00 +10°C° 0.9 mm 8 mps 757 mmHg 82%
    09:00 +10°C° 0.9 mm 9 mps 758 mmHg 80%
    10:00 +10°C° 0.6 mm 9 mps 758 mmHg 78%
    11:00 +10°C° 0.6 mm 9 mps 758 mmHg 76%
    12:00 +11°C° 0.6 mm 9 mps 759 mmHg 74%
    13:00 +10°C° 0.5 mm 9 mps 759 mmHg 73%
    14:00 +10°C° 0.5 mm 8 mps 760 mmHg 73%
    15:00 +10°C° 0.5 mm 8 mps 760 mmHg 72%
    16:00 +10°C° 0.2 mm 8 mps 761 mmHg 73%
    17:00 +10°C° 0.2 mm 7 mps 762 mmHg 75%
    18:00 +9°C° 0.2 mm 7 mps 763 mmHg 76%
    19:00 +9°C° 0 mm 6 mps 764 mmHg 75%
    20:00 +9°C° 0 mm 6 mps 764 mmHg 73%
    21:00 +9°C° 0 mm 6 mps 765 mmHg 72%
    22:00 +9°C° 0 mm 6 mps 765 mmHg 73%
    23:00 +9°C° 0 mm 6 mps 766 mmHg 73%

    31 May, Wednesday

    Time Temperature Precipitation Wind Pressure Humidity
    00:00 +9°C° 0 mm 5 mps 766 mmHg 73%
    01:00 +9°C° 0 mm 5 mps 766 mmHg 74%
    02:00 +8°C° 0 mm 5 mps 766 mmHg 74%
    03:00 +8°C° 0 mm 4 mps 767 mmHg 75%
    04:00 +8°C° 0 mm 4 mps 767 mmHg 76%
    05:00 +8°C° 0 mm 4 mps 768 mmHg 77%
    06:00 +8°C° 0 mm 4 mps 768 mmHg 77%
    07:00 +10°C° 0 mm 4 mps 769 mmHg 73%
    08:00 +11°C° 0 mm 4 mps 769 mmHg 68%
    09:00 +12°C° 0 mm 4 mps 770 mmHg 63%
    10:00 +13°C° 0 mm 4 mps 770 mmHg 62%
    11:00 +13°C° 0 mm 4 mps 770 mmHg 61%
    12:00 +13°C° 0 mm 4 mps 770 mmHg 59%
    13:00 +13°C° 0 mm 4 mps 770 mmHg 59%
    14:00 +13°C° 0 mm 4 mps 770 mmHg 60%
    15:00 +13°C° 0 mm 4 mps 770 mmHg 60%
    16:00 +12°C° 0 mm 3 mps 770 mmHg 66%
    17:00 +11°C° 0 mm 3 mps 771 mmHg 72%
    18:00 +10°C° 0 mm 3 mps 771 mmHg 77%
    19:00 +9°C° 0 mm 3 mps 771 mmHg 79%
    20:00 +9°C° 0 mm 2 mps 772 mmHg 81%
    21:00 +9°C° 0 mm 2 mps 772 mmHg 83%
    22:00 +8°C° 0 mm 2 mps 772 mmHg 84%
    23:00 +8°C° 0 mm 2 mps 772 mmHg 85%
    Show more